Skip Page Navigation
NASA JPL Caltech
NASA Logo - Jet Propulsion Laboratory + View the NASA Portal
+ Center for Near-Earth Object Studies
JPL Home Earth Solar System Stars & Galaxies Technology
JPL Solar System Dynamics
BODIES ORBITS EPHEMERIDES TOOLS PHYSICAL DATA DISCOVERY FAQ SITE MAP
JPL Small-Body Database Browser
Search: [ help ]  
100265 (1994 TH14)
Classification: Main-belt Asteroid          SPK-ID: 2100265
Ephemeris | Orbit Diagram | Orbital Elements | Mission Design | Physical Parameters | Discovery Circumstances | Close-Approach Data ]

[ show orbit diagram ]
Orbital Elements at Epoch 2459000.5 (2020-May-31.0) TDB
Reference: JPL 14 (heliocentric ecliptic J2000)
 Element Value Uncertainty (1-sigma)   Units 
e .1812498969897612 4.121e-08  
a 3.101398587106439 2.163e-08 au
q 2.539270412669206 1.274e-07 au
i 1.71566654110405 4.7353e-06 deg
node 70.52898706456655 0.0001649 deg
peri 341.3918118490833 0.00016549 deg
M 231.5601625405671 1.6101e-05 deg
tp 2459712.257497241707
(2022-May-12.75749724)
9.419e-05 TDB
period 1994.962809634077
5.46
2.087e-05
5.714e-08
d
yr
n .1804544918138261 1.8878e-09 deg/d
Q 3.663526761543672 2.555e-08 au
  Orbit Determination Parameters
   # obs. used (total)      568  
   data-arc span      9012 days (24.67 yr)  
   first obs. used      1994-09-27  
   last obs. used      2019-05-31  
   planetary ephem.      DE431  
   SB-pert. ephem.      SB431-N16  
   condition code      0  
   norm. resid. RMS      .52758  
   source      ORB  
   producer      Otto Matic  
   solution date      2020-Aug-25 09:02:43  

Additional Information
 Earth MOID = 1.5503 au 
 Jupiter MOID = 1.71174 au 
 T_jup = 3.196 
[ show covariance matrix ]

Ephemeris | Orbit Diagram | Orbital Elements | Mission Design | Physical Parameters | Discovery Circumstances | Close-Approach Data ]

Physical Parameter Table
Parameter Symbol Value Units Sigma Reference Notes
absolute magnitude H 15.2   n/a MPO436467  
diameter diameter 6.228 km 0.372 urn:nasa:pds:neowise_diameters_albedos::2.0[mainbelt] (http://adsabs.harvard.edu/abs/2011ApJ...741...68M)  
rotation period rot_per 0.97 h n/a LCDB (Rev. 2019-August); Warner et al., 2009 lower-limit; Incomplete or inconclusive result.
Published Reference List:
[Erasmus, N.; McNeill, A.; Mommert, M.; Trilling, D.E.; et al. (2018) Ap. J. Suppl. Series 237, A19.]
[Erasmus, N.; McNeill, A.; Mommert, N.; Trilling, D.E.; et al. (2019) Ap. J. Suppl. Series 242, A15.]
geometric albedo albedo 0.042   0.011 urn:nasa:pds:neowise_diameters_albedos::2.0[mainbelt] (http://adsabs.harvard.edu/abs/2011ApJ...741...68M)  

100265 (1994 TH14)          Discovered 1994-Oct-12 by Spacewatch at Kitt Peak
Reference: 20051019/Numbers.arcLast Updated: 2005-10-26

[ show close-approach data ]
Alternate Designations
 1994 TH14 = 2000 YK76 
Ephemeris | Orbit Diagram | Orbital Elements | Mission Design | Physical Parameters | Discovery Circumstances | Close-Approach Data ]
ABOUT SSD CREDITS/AWARDS PRIVACY/COPYRIGHT GLOSSARY LINKS
FirstGov 2020-Nov-25 06:17 UT
(server date/time)  
NASA Home Page
Site Manager:   Ryan S. Park
Webmaster  Alan B. Chamberlin